Regional Weather Roundup
Issued by NWS Green Bay, WI

Home | Current Version | Previous Version | Text Only | Print | Product List | Glossary On
Versions: 1 2 3 4 5 6 7 8 9 10 11 12 13 14 15 16 17 18 19 20 21 22 23 24 25 26 27 28 29 30 31 32 33 34 35 36 37 38 39 40 41 42 43 44 45 46 47 48 49 50
000
ASUS43 KGRB 270810
RWRGRB

NORTH-CENTRAL AND NORTHEAST WISCONSIN REGIONAL WEATHER ROUNDUP
NATIONAL WEATHER SERVICE GREEN BAY WI
300 AM CDT WED AUG 27 2014

WIZ005-009-010>012-018-019-270900-
NORTH CENTRAL WISCONSIN

CITY           SKY/WX    TMP DP  RH WIND       PRES   REMARKS
IRONWOOD       NOT AVBL
MANITOWISH WTR LGT RAIN  54  54 100 CALM      30.18F
ARBOR VITAE    LGT RAIN  57  55  92 CALM      30.19F
EAGLE RIVER    LGT RAIN  53  53  99 CALM      30.18S
LAND O LAKES   CLOUDY    53  53  99 CALM      30.19F
RHINELANDER    LGT RAIN  56  53  90 NW5       30.20R
PHILLIPS       LGT RAIN  55  53  96 CALM      30.19F
ANTIGO         CLOUDY    55  53  92 N3        30.19S
TOMAHAWK       LGT RAIN  54  52  94 CALM      30.19F
MERRILL        RAIN      56  56  98 CALM      30.19S
$$

WIZ013-073-270900-
NORTHEAST WISCONSIN

CITY           SKY/WX    TMP DP  RH WIND       PRES   REMARKS
IRON MOUNTAIN  MOCLDY    54  50  86 CALM      30.15S
MARINETTE      MOCLDY    55  50  82 NW3       30.16R
OCONTO         MOCLDY    57  54  91 CALM      30.16R
$$

WIZ017-030-035>037-045-270900-
CENTRAL WISCONSIN

CITY           SKY/WX    TMP DP  RH WIND       PRES   REMARKS
MEDFORD        LGT RAIN  56  55  95 CALM      30.18S
WAUSAU         CLOUDY    59  55  87 CALM      30.17R
MOSINEE        CLOUDY    59  54  82 NE3       30.19S
MARSHFIELD     CLOUDY    62  53  72 N3        30.18R
WISC RAPIDS    CLOUDY    62  55  77 N6        30.19R
STEVENS POINT  CLOUDY    57  53  87 CALM      30.19R
WAUPACA        CLOUDY    62  57  83 N3        30.18R
SHAWANO        MOCLDY    60  54  80 N5        30.17R
CLINTONVILLE   CLOUDY    57  54  88 CALM      30.18R
$$

WIZ038-039-048-051-270900-
FOX VALLEY

CITY           SKY/WX    TMP DP  RH WIND       PRES   REMARKS
NWS GREEN BAY  CLOUDY    59  55  87 N6        30.16R
APPLETON       CLOUDY    61  52  72 N8        30.17R
OSHKOSH        CLOUDY    63  56  78 N8        30.15R
FOND DU LAC    CLOUDY    63  57  81 NW6       30.14F
$$

WIZ022-050-052-270900-
EAST CENTRAL WISCONSIN

CITY           SKY/WX    TMP DP  RH WIND       PRES   REMARKS
STURGEON BAY   CLOUDY    59  54  82 NE5       30.16R
MANITOWOC      CLOUDY    62  59  90 N6        30.15R
SHEBOYGAN      CLOUDY    62  57  83 NW7       30.14R
$$

LMZ563-521-522-541>543-270900-
LAKESHORE

STATION/POSITION TIME  TEMP    WIND        PRES    VSBY  WAVE
                       AIR SEA DIR/SP/G                  HT/PER
                 (UTC) (F)     (DEG/KT/KT) (MB)    (MI)  (FT/S)
SHEBOYGAN LKSHOR 0800   65 64  330/  9/ 10 1020.6R
KEWAUNEE LKSHORE 0800   63      30/ 12/ 17 1019.5R
NORTHPORT PIER   0800   63      20/  6/  8 1020.7S
N MID LAKE BUOY  0800   63 65  360/ 10/ 12 1020.6R         2/ 4
S GREEN BAY BUOY 0800   66     VRB 14      1022.1R
SISTER BAY LKSHO 0700   61        CALM       N/A
CHAMBERS ISLAND  0800   64     350/  9/ 11 1021.0S
MENOMINEE LKSHOR 0800   63      10/  8/ 10 1021.5S
$$


USA.gov is the U.S. government's official web portal to all federal, state and local government web resources and services.